Regional Weather Roundup
Issued by NWS Charleston, SC

Current Version | Previous Version | Graphics & Text | Print | Product List | Glossary On
Versions: 1 2 3 4 5 6 7 8 9 10 11 12 13 14 15 16 17 18 19 20 21 22 23 24 25 26 27 28 29 30 31 32 33 34 35 36 37 38 39 40 41 42 43 44 45 46 47 48 49 50
000
ASUS42 KCHS 061712
RWRCHS

REGIONAL WEATHER ROUNDUP
NATIONAL WEATHER SERVICE CHARLESTON SC
100 PM EDT WED MAY 06 2015

NOTE: "FAIR" INDICATES FEW OR NO CLOUDS BELOW 12,000 FEET WITH NO
SIGNIFICANT WEATHER AND/OR OBSTRUCTIONS TO VISIBILITY.

NOT ALL STATIONS ARE QUALITY CONTROLLED BY THE NATIONAL
WEATHER SERVICE. USE DATA WITH CAUTION...ESPECIALLY
DEWPOINT OBSERVATIONS.

SCZ027-030-031-034>040-042>050-061800-
...SOUTHEAST SOUTH CAROLINA...

CITY           SKY/WX    TMP DP  RH WIND       PRES   REMARKS
N CHARLESTON   PTSUNNY   78  58  49 NE12      30.14F
WATERFRONT PRK NOT AVBL
MOUNT PLEASANT FAIR      79  63  57 MISG      30.15F
PINOPOLIS      NOT AVBL
MONCKS CORNER  PTSUNNY   79  57  47 NE6       30.16F
SUMMERVILLE    PTSUNNY   77  61  57 N8        30.16F
BEAUFORT MCAS  PTSUNNY   79  61  53 NE8       30.14F
BEAUFORT ARPT  FAIR      79  63  57 NE13      30.14F
HILTON HEAD IS PTSUNNY   75  61  60 NE8G16    30.15F
WALTERBORO     PTSUNNY   77  54  44 NE13      30.16F
ALLENDALE      FAIR      77  57  50 VRB6      30.16F

...SOUTHERN MIDLANDS AND PEE DEE...

CITY           SKY/WX    TMP DP  RH WIND       PRES   REMARKS
GEORGETOWN     NOT AVBL
KINGSTREE      NOT AVBL
ORANGEBURG     MOSUNNY   77  51  40 NE9       30.18F
BARNWELL       FAIR      81  52  36 NE10G17   30.18F
AIKEN          FAIR      75  52  43 NE9       30.22F
MANNING        FAIR      77  46  33 E10       30.17F
COLUMBIA       PTSUNNY   80  55  42 NE12G22   30.18F
SUMTER         MOSUNNY   78  55  44 E12       30.17F
FLORENCE       MOSUNNY   79  49  34 NE9G20    30.18F
MYRTLE BEACH   MOSUNNY   77  59  53 E16       30.20F
N MYRTLE BEACH CLOUDY    75  60  59 E13       30.17F

$$

GAZ063-065-086>088-099>101-113>116-118-119-134>141-150-061800-
...SOUTHEAST GEORGIA...

CITY           SKY/WX    TMP DP  RH WIND       PRES   REMARKS
SAVANNAH ARPT  CLOUDY    77  60  55 NE9G18    30.15F
HUNTER AAF     CLOUDY    77  62  58 NE13      30.12F
FORT STEWART   CLOUDY    76  62  61 NE9       30.13F
STATESBORO       N/A     78  60  54 NE8       30.16F
SYLVANIA       PTSUNNY   77  61  57 E6        30.17F
CLAXTON        FAIR      77  61  57 E10       30.16F

...CSRA...CENTRAL AND FAR SOUTHEAST GEORGIA...

CITY           SKY/WX    TMP DP  RH WIND       PRES   REMARKS
THOMSON        MOSUNNY   79  61  54 E10       30.24F
AUGUSTA-BUSH   PTSUNNY   79  55  43 E9G20     30.17F
AUGUSTA-DANIEL PTSUNNY   80  54  40 E12       30.18F
SWAINSBORO     FAIR      81  37  21 E6        30.18F
VIDALIA        MOSUNNY   79  59  50 E13       30.16F
EASTMAN        FAIR      80  57  45 NE9       30.19F
HAZLEHURST     FAIR      78  59  51 E9        30.15F
ALMA           MOSUNNY   79  61  53 VRB6      30.14F
WAYCROSS       CLOUDY    81  65  59 NE8       30.13S
JESUP          CLOUDY    77  64  65 E9        30.15F
BAXLEY         PTSUNNY   81  61  50 NE7       30.14F
BRUNSWICK      CLOUDY    75  63  64 NE10G16   30.14F
SAINT SIMONS   CLOUDY    75  62  64 NE14G22   30.13F

$$

SCZ027-028-034-036>038-045-046-048>050-GAZ119-141-061800-
...LAKE AND SUPPLEMENTAL COASTAL OBSERVATIONS...

STATION/POSITION TIME  TEMP    WIND        PRES    WAVE   SWELL
                       AIR SEA DIR/SP/G            HT/PER HT/PER/DIR
                 (UTC) (F)     (DEG/KT/KT) (MB)    (FT/S) (FT/S/D)
UPR LAKE MARION  NOT AVBL
WINYAH BAY       NOT AVBL
LAKE MURRAY      1600   74      CALM  /  3 1022.4F
ACE BASIN NERRS  1545   78      60/  6     1021.0
FORT PULASKI     1600   73 71   50/ 13/ 17 1021.7S
SAPELO ISLAND    1600   74      30/ 13     1021.0S

$$

ANZ835-935-AMZ111-154-330-350-352-354-370-450-454-472-061800-
...C-MAN AND BUOY OBSERVATIONS...

STATION/POSITION TIME  TEMP    WIND        PRES    WAVE   SWELL
                       AIR SEA DIR/SP/G            HT/PER HT/PER/DIR
                 (UTC) (F)     (DEG/KT/KT) (MB)    (FT/S) (FT/S/D)
BUOY 41004       1650   73 73   60/ 19/ 23 1019.4F   7/ 8   3/ 8
BUOY 41008       1650   70 70   20/ 16/ 19 1020.0F   5/ 8   3/110/ 8
FOLLY BEACH CMAN 1700   72      50/ 19/ 22 1020.9F
CAPERS NEARSHORE 1608   71      50/ 17/ 23 1021.6R
FRIPP NEARSHORE  1600   72      50/ 16/ 17 1020.7R


STATION/POSITION TIME  TEMP    WIND        PRES    WAVE   SWELL
                       AIR SEA DIR/SP/G            HT/PER HT/PER/DIR
                 (UTC) (F)     (DEG/KT/KT) (MB)    (FT/S) (FT/S/D)
5E ST. MARYS GA  1621      72                N/A     5/ 8
FRYING PAN BUOY  1650   73 71   70/ 17/ 21 1021.9F   6/ 7
BUOY 41025       1650   71 74  100/ 12/ 14 1023.6F   3/ 6   3/130/ 6
CAPE LOOKOUT NC  1700   69      40/ 13/ 14 1022.7F
BUOY 41002       1650   67 70   80/ 25/ 31 1018.6F   8/ 8   2/ 80/11
BUOY 41010       1620   70 78   10/ 19/ 21 1016.2F
ST AUGUSTINE FL  1700   71 72  360/ 18/ 21 1019.9F


$$


USA.gov is the U.S. government's official web portal to all federal, state and local government web resources and services.